Location: *
(50.7610°S, 176.6197°W)
Time: 04:06:05
(UTC+00:00)

Daily predictions for brighter satellites

Satellite Brightness Start Highest point End
(mag) Time Altitude Azimuth Time Altitude Azimuth Time Altitude Azimuth
Cosmos 1703 Rocket 3.6 06:21:31 10° N 06:25:58 72° E 06:30:31 10° SSE
Cosmos 1953 4.1 06:26:31 10° SSE 06:29:12 17° ESE 06:31:51 10° ENE
SL-27 R/B 2.7 06:26:14 10° N 06:29:21 42° ENE 06:32:32 10° SE
ERBS 3.7 06:27:33 10° SW 06:30:05 24° S 06:32:37 10° ESE
USA 234 3.6 06:24:15 10° ESE 06:30:51 72° SSW 06:37:26 10° WNW
Uosat 12 SS-18 rocket 4.2 06:26:34 10° NNW 06:31:25 63° NE 06:35:41 10° SE
Cosmos 1674 3.4 06:29:32 10° NNE 06:32:49 30° E 06:36:09 10° SSE
Okean O Rocket 3.2 06:30:31 10° SE 06:33:10 15° E 06:35:48 10° NE
Cosmos 2034 Rocket 4.1 06:27:30 10° N 06:33:48 87° W 06:40:08 10° S
CORIOLIS 4.3 06:28:57 10° SSE 06:34:31 88° ENE 06:40:02 10° NNW
IRIDIUM 106 4.5 06:29:15 10° S 06:34:35 88° W 06:39:52 10° N
Cosmos 1908 Rocket 4.4 06:31:36 10° SSW 06:36:04 57° W 06:40:26 10° N
Cosmos 2237 Rocket 3.0 06:31:03 10° SSW 06:36:22 36° SE 06:41:37 10° ENE
CZ-4C R/B 3.0 06:33:30 10° NNE 06:37:00 83° ESE 06:40:34 10° SSW
Meteor PRIRODA 4.1 06:33:18 10° S 06:37:04 68° WSW 06:40:47 10° NNW
USA 308 3.4 06:33:37 10° WSW 06:37:44 54° S 06:41:51 10° E
Cosmos 2360 Rocket 3.8 06:33:11 10° SW 06:38:28 39° WNW 06:43:42 10° N
Okean 1-7 3.3 06:35:57 10° NNW 06:40:19 76° WSW 06:44:47 10° S
Cosmos 1437 Rocket 4.2 06:36:45 10° SSW 06:40:44 45° W 06:44:36 10° NNW
CZ-2D R/B 4.4 06:38:01 10° S 06:41:50 50° WSW 06:45:37 10° NNW
SJ-11-01 4.3 06:37:48 10° SSE 06:42:37 86° ENE 06:47:19 10° NNW
Cosmos 1300 Rocket 3.6 06:38:26 10° S 06:42:52 58° ESE 06:47:10 10° NNE
Cosmos 1782 Rocket 3.7 06:39:08 10° SSW 06:43:39 84° W 06:48:05 10° N
NOAA 6 4.0 06:38:34 10° SSE 06:43:49 81° ENE 06:48:58 10° NNW
ADEOS 4.0 06:38:50 10° SSE 06:44:08 71° WSW 06:49:23 10° NNW
In-Cosmos 22 4.3 06:39:44 10° N 06:45:06 56° E 06:50:39 10° SSE
COSMOS 2428 2.8 06:40:32 10° SSW 06:46:19 85° ESE 06:52:04 10° NNE
YAOGAN 1 3.6 06:45:41 10° SE 06:49:25 26° E 06:53:05 10° NNE
Cosmos 405 Rocket 4.2 06:45:52 10° NW 06:49:31 42° WSW 06:53:09 10° S
Okean 2 Rocket 3.8 06:46:49 10° S 06:50:59 35° ESE 06:55:06 10° NE
Alouette 2 Rocket 3.5 06:47:17 10° N 06:51:50 59° ENE 06:55:30 10° SSE
SJ 16-02 1.7 06:47:38 10° SSW 06:52:07 70° WNW 06:56:33 10° NNE
Cosmos 1300 4.2 06:49:43 10° SSE 06:52:38 20° ESE 06:54:37 14° ENE
KORONAS-FOTON 3.8 06:51:11 10° N 06:54:57 57° E 06:58:44 10° SSE
Meteor 1-21 4.2 06:51:23 10° N 06:56:57 63° E 07:02:35 10° SSE
Cosmos 1777 Rocket 4.0 06:51:38 10° SSW 06:57:02 86° ESE 07:02:22 10° NNE
NOSS 0 Rocket 4.0 06:51:22 10° SSW 06:57:40 71° SE 07:03:53 10° NE
CZ-4C R/B 4.0 06:53:57 10° NNE 06:59:31 20° ENE 07:04:35 10° ESE
ARGOS 3.7 06:55:08 10° S 07:00:34 65° WSW 07:05:55 10° NNW
CZ-4B R/B 3.7 06:57:31 10° SSE 07:02:32 37° E 07:07:27 10° NNE
Okean 2 3.6 06:59:15 10° N 07:03:14 49° E 07:07:17 10° SSE
Cosmos 1707 2.9 07:01:19 10° NNW 07:05:14 79° WSW 07:09:13 10° S
CZ-4B R/B 4.1 07:01:27 10° S 07:05:28 48° WSW 07:09:38 10° NW
USA 305 3.1 07:01:46 10° WSW 07:05:55 62° SSE 07:08:59 17° E
PAYLOAD B 4.3 07:03:16 10° SSE 07:08:53 57° ENE 07:14:25 10° N
Cosmos 1626 2.0 07:07:57 10° N 07:11:39 81° E 07:15:24 10° SSE
PSLV R/B 4.0 07:08:53 10° NNE 07:13:04 66° ESE 07:17:20 10° S
Cosmos 2279 Rocket 4.0 07:07:19 10° N 07:13:31 64° E 07:19:47 10° SSE
Geosat 4.2 07:09:05 10° NNE 07:14:09 77° WNW 07:19:16 10° SSW
Cosmos 1271 Rocket 3.6 07:10:59 10° S 07:14:25 30° ESE 07:15:56 22° ENE
Meteor 1-16 Rocket 4.1 07:10:12 10° S 07:15:35 67° ESE 07:20:59 10° NNE
SL-16 R/B 3.4 07:11:32 10° SSW 07:16:30 29° SE 07:19:50 17° E
Cosmos 2142 Rocket 4.4 07:11:21 10° N 07:17:28 67° E 07:23:38 10° SSE
Cosmos 1634 Rocket 4.2 07:12:17 10° NNW 07:18:36 82° W 07:25:04 10° S
Cosmos 2151 Rocket 3.7 07:14:04 10° S 07:18:37 58° ESE 07:22:24 14° NNE
Lacrosse 5 rocket 1.4 07:16:38 10° NNW 07:20:07 44° NE 07:22:29 19° ESE
APEX 3.6 07:15:49 10° SSW 07:20:49 65° SE 07:23:20 23° NE
ATLAS CENTAUR R/B 4.1 07:22:15 10° SSW 07:22:46 10° S 07:23:17 10° S
Meteor 2-10 Rocket 3.9 07:18:13 10° S 07:23:20 48° ESE 07:26:59 19° NE
CZ-4B DEB 4.2 07:17:48 10° SSE 07:23:25 89° WSW 07:28:57 10° NNW
Cosmos 1758 3.9 07:20:09 10° SSW 07:24:10 60° W 07:28:06 10° N
H-2A R/B 2.1 07:19:40 10° NNE 07:24:11 80° ESE 07:28:49 10° SSW
Genesis I 3.1 07:21:33 10° NW 07:25:13 79° SW 07:28:55 10° SE
Cosmos 1908 3.5 07:21:29 10° SSW 07:25:25 69° W 07:29:16 10° N
Aureole 3 Rocket 3.1 07:25:25 21° NNE 07:27:18 35° E 07:30:19 10° SSE
Cosmos 990 Rocket 4.2 07:22:14 10° SSW 07:27:21 52° ESE 07:30:22 23° NE
PSLV R/B 4.0 07:23:52 10° SSE 07:28:00 81° WSW 07:32:01 10° NNW
CENTAUR R/B 4.2 07:23:10 10° W 07:29:42 33° SSW 07:35:15 10° SE
SL-23 DEB 4.4 07:27:48 10° W 07:31:48 87° S 07:35:53 22° E
Sich 1 Rocket 3.7 07:28:47 10° SSW 07:33:25 80° W 07:37:54 10° N
CZ-4B R/B 1.4 07:33:07 41° E 07:33:33 45° ESE 07:36:30 10° S
Okean-O 4.1 07:33:06 10° SE 07:35:47 21° ESE 07:35:47 21° ESE
USA 276 2.2 07:36:20 10° WNW 07:39:17 49° NNE 07:39:22 48° NNE
FALCON 9 DEB 4.1 07:37:19 10° NNW 07:39:25 27° N 07:39:25 27° N
USA 307 2.9 07:38:14 10° WSW 07:42:24 73° SSE 07:44:03 35° E
Cosmos 1674 Rocket 3.6 07:38:37 11° N 07:42:47 58° E 07:47:16 10° SSE
IRAS Rocket 4.4 07:39:48 24° NE 07:43:15 61° ESE 07:48:50 10° SSW
ATLAS 3B R/B 3.0 07:39:14 10° N 07:46:09 45° ENE 07:52:45 10° SE
Cosmos 1898 Rocket 3.8 07:44:01 10° SSW 07:49:10 52° ESE 07:51:09 34° ENE
SL-14 R/B 3.2 07:45:43 10° N 07:49:46 76° E 07:53:54 10° SSE
CZ-4 R/B 1.2 07:45:49 10° SSE 07:49:50 71° ENE 07:53:19 14° N
Cosmos 1818 4.3 07:44:32 10° WNW 07:49:51 55° SW 07:55:12 10° SE
ATLAS 5 CENTAUR R/B 2.3 07:44:54 10° SW 07:50:48 65° NW 07:53:24 28° NNE
Cosmos 2227 Rocket 2.7 07:49:16 27° NE 07:51:20 35° ENE 07:56:28 10° SE
USA 306 2.7 07:50:44 10° WSW 07:54:55 87° SSE 07:56:02 48° ENE
SJ-6B 3.7 07:53:20 10° SSE 07:56:12 33° ESE 07:56:12 33° ESE
Cosmos 1980 3.9 07:54:19 10° SSW 08:00:00 68° WNW 08:03:27 24° NNE
Cosmos 2221 Rocket 3.9 07:58:07 10° NNW 08:02:43 72° WSW 08:07:21 10° S
Cosmos 540 Rocket 4.2 08:03:34 32° E 08:03:34 32° E 08:07:25 10° SE
ERBS 2.6 08:02:16 10° SW 08:04:52 51° S 08:04:52 51° S
Cosmos 2297 Rocket 2.1 07:59:47 10° NNW 08:05:23 64° ENE 08:11:03 10° SE
Cosmos 1953 2.8 08:01:49 10° SSW 08:05:53 59° W 08:08:02 26° NNW
Cosmos 1238 Rocket 3.6 08:00:25 10° S 08:06:22 68° ESE 08:08:12 40° NNE
Okean O Rocket 1.8 08:05:34 10° S 08:10:02 72° WSW 08:14:25 10° NNW
Cosmos 1378 Rocket 3.6 08:08:26 14° NNW 08:12:06 77° W 08:16:32 10° S
USA 234 3.9 08:07:56 14° ESE 08:13:28 52° S 08:19:51 10° WSW
IRS-1C Rocket 4.4 08:10:26 10° SSE 08:15:31 43° E 08:15:31 43° E
CSL-04 Debris 4.2 08:11:23 10° SSE 08:16:53 56° E 08:18:25 43° NNE
Cosmos 1655 Rocket 4.2 08:10:53 10° SSW 08:17:20 75° W 08:21:59 20° N
USA 308 2.6 08:13:10 10° WSW 08:17:22 84° NNW 08:17:39 76° NE
Cosmos 1763 Rocket 3.4 08:15:00 10° NNW 08:20:14 72° ENE 08:25:36 10° SSE
Cosmos 2237 Rocket 2.8 08:15:05 10° SW 08:20:40 52° WNW 08:23:39 26° N
Meteor 1-24 Rocket 4.1 08:21:42 43° E 08:21:58 43° E 08:27:36 10° SSE
Okean 1 Rocket 3.4 08:17:42 10° SSW 08:22:07 64° W 08:23:32 40° NNW
USA 186 3.4 08:19:55 10° SSE 08:21:31 27° SSE 08:21:31 27° SSE
SL-8 R/B 4.2 08:18:39 10° NW 08:22:31 42° N 08:22:31 42° N
YAOGAN 1 3.9 08:21:29 10° S 08:25:38 41° WSW 08:29:44 10° NW
Cosmos 1455 Rocket 3.3 08:21:22 10° S 08:25:33 55° ESE 08:25:33 55° ESE
Cosmos 1300 3.8 08:24:41 10° SSW 08:28:20 41° W 08:29:28 32° NW
H-2A R/B 4.2 08:28:55 10° SSE 08:31:00 23° SE 08:31:00 23° SE
Cosmos 372 Rocket 3.9 08:29:04 10° SSW 08:34:23 68° ESE 08:34:57 63° ENE
Landsat 7 4.0 08:36:59 10° SSE 08:41:02 56° SE 08:41:02 56° SE
Cosmos 2219 3.1 08:42:08 64° NE 08:42:37 67° ENE 08:48:18 10° SSE
CZ-4B R/B 4.4 08:38:05 10° S 08:43:09 40° WSW 08:48:06 10° NW
USA 81 4.1 08:43:32 47° NNW 08:45:07 80° W 08:50:32 10° S
USA 305 3.6 08:41:13 10° WSW 08:44:31 45° WNW 08:44:31 45° WNW
CZ-4C R/B 2.8 08:39:07 10° NNW 08:47:24 69° NE 08:54:17 10° SE
CSL-04 Rocket 3.5 08:42:16 10° SSE 08:47:43 85° ENE 08:48:39 62° N
Cosmos 1455 3.4 08:45:10 10° S 08:47:41 38° S 08:47:41 38° S
Meteor 2-5 Rocket 3.6 08:50:46 67° NNE 08:51:30 78° E 08:57:26 10° SSE
Cosmos 2263 Rocket 4.3 08:55:43 13° SE 08:55:43 13° SE 08:56:30 10° SE
Resurs 01 Rocket 3.3 08:47:59 10° SSE 08:50:00 24° SE 08:50:00 24° SE
IGS 5A 3.9 08:52:00 10° S 08:56:09 59° WSW 08:56:09 59° WSW
Cosmos 1244 Rocket 4.4 08:50:44 10° S 08:57:02 89° E 08:58:09 63° N
Lacrosse 5 rocket 2.6 08:55:29 10° W 08:58:02 36° WSW 08:58:02 36° WSW
SL-16 R/B 2.2 08:55:25 10° SSW 09:01:10 71° WNW 09:01:43 66° NNW
ATLAS CENTAUR R/B 3.9 09:01:26 10° S 09:03:03 12° SSE 09:03:23 12° SSE
Cosmos 1937 Rocket 3.8 08:59:26 10° SSW 09:04:41 58° WNW 09:04:59 57° NW
CZ-4B R/B 4.3 09:05:13 11° W 09:05:13 11° W 09:06:09 10° WSW
OBJECT-B 4.0 09:06:22 10° SSW 09:06:36 11° SSW 09:06:36 11° SSW
Cosmos 44 3.6 09:07:32 10° SW 09:12:22 72° SSW 09:12:22 72° SSW
Okean-O 3.3 09:08:56 10° S 09:13:21 52° WSW 09:13:21 52° WSW
Resurs 1-3 4.3 09:11:23 10° S 09:15:15 52° SW 09:15:15 52° SW
CENTAUR R/B 4.2 09:16:41 10° SW 09:22:06 26° S 09:25:32 16° SE
Cosmos 1745 Rocket 3.9 09:16:04 10° S 09:22:19 74° ESE 09:22:19 74° ESE
CZ-4 R/B 4.3 09:21:57 10° SSW 09:24:17 15° WSW 09:26:39 10° W
S3M 4.3 09:34:31 56° SE 09:34:31 56° SE 09:39:36 10° SSE
ATLAS 5 CENTAUR R/B 4.4 09:32:19 10° W 09:33:57 11° WNW 09:34:52 11° WNW
Cosmos 1943 3.5 09:28:46 10° SSW 09:33:43 61° SSE 09:33:43 61° SSE
Cosmos 2227 Rocket 3.0 09:30:39 15° NW 09:35:15 50° SW 09:40:50 10° SSE
ATLAS 3B R/B 3.2 09:29:33 10° WNW 09:36:47 60° SW 09:43:37 10° SE
Cosmos 1025 Rocket 4.5 09:38:46 37° SSW 09:38:46 37° SSW 09:41:56 10° S
BREEZE-M DEB (TANK) 4.1 09:25:03 10° W 09:36:46 55° NW 09:36:46 55° NW
Cosmos 967 Rocket 4.5 09:31:41 10° SW 09:37:52 77° W 09:37:52 77° W
Cosmos 1603 4.1 09:35:32 10° SSW 09:40:31 59° SSE 09:40:31 59° SSE
Cosmos 2297 Rocket 3.9 09:44:51 10° WNW 09:49:52 31° SW 09:54:55 10° SSE
Cosmos 841 Rocket 4.4 09:54:37 47° SSW 09:54:37 47° SSW 09:58:56 10° SSE
USA 234 3.4 09:55:15 60° SE 09:56:03 65° SSE 10:02:35 10° WSW
Cosmos 1709 Rocket 4.2 09:52:19 10° S 09:58:01 71° S 09:58:01 71° S
SPOT 1/Viking Rocket 4.4 09:54:34 10° S 09:58:52 50° SSW 09:58:52 50° SSW
Cosmos 2285 Rocket 4.3 10:03:30 63° SSE 10:03:30 63° SSE 10:08:54 10° SSE
H-2A R/B 4.5 10:04:22 10° S 10:07:29 29° SW 10:07:29 29° SW
NOSS 3-1 (C) 4.1 10:07:50 10° NW 10:16:47 77° SW 10:24:22 10° SE
Resurs 01 Rocket 3.8 10:24:53 10° S 10:27:33 23° SW 10:27:33 23° SW
Ariane Rocket 4.4 10:29:32 10° S 10:32:55 36° SSW 10:32:55 36° SSW
Cosmos 2263 Rocket 3.4 10:37:21 39° S 10:37:21 39° S 10:41:00 10° SSE
CZ-4C R/B 3.6 10:28:52 10° WNW 10:36:25 46° SSW 10:42:39 10° SE
ATLAS CENTAUR R/B 4.5 10:39:13 10° SSW 10:39:21 11° SSW 10:39:21 11° SSW
Terra 3.8 10:38:00 10° SSE 10:39:58 25° SSE 10:39:58 25° SSE
SPOT 5 4.5 10:48:48 10° S 10:52:01 36° SSW 10:52:01 36° SSW
USA 229 DEB 4.3 10:58:24 56° SE 10:58:24 56° SE 11:03:50 10° SE
USA 229 4.3 10:58:32 55° SE 10:58:32 55° SE 11:03:55 10° SE
CENTAUR R/B 3.5 11:08:19 10° SW 11:12:41 38° S 11:12:41 38° S
CZ-2D R/B 3.8 11:26:36 28° SSE 11:26:36 28° SSE 11:29:44 10° S
Resurs 1-4 Rocket 3.8 11:26:46 30° SSE 11:26:46 30° SSE 11:30:04 10° S
NOSS 3-1 (A) 4.4 11:24:31 54° WSW 11:25:53 60° SW 11:33:12 10° SE
ATLAS 3B R/B 4.3 11:22:40 10° WSW 11:28:49 30° SSW 11:34:41 10° SE
Cosmos 1833 Rocket 4.1 11:26:31 10° SSW 11:30:16 35° S 11:30:16 35° S
NOSS 3-2 (C) 4.4 11:25:52 10° SW 11:32:34 44° SSE 11:32:40 44° SSE
NOSS 3-2 (A) 4.3 11:28:34 10° SW 11:33:46 47° SSW 11:33:46 47° SSW
IDEFIX/ARIANE 42P 4.4 11:46:15 26° SE 11:46:15 26° SE 11:49:34 10° S
USA 238 DEB 4.4 11:40:10 10° SW 11:47:01 48° SSE 11:47:28 47° SE
USA 238 4.4 11:40:16 10° SW 11:47:07 48° SSE 11:47:37 47° SE
Cosmos 2082 Rocket 3.8 11:44:12 10° SSW 11:49:09 31° SE 11:49:09 31° SE
